Location: Baia Mare
(47.6567°N, 23.5850°E)
Time: 03:37:14
(UTC+03:00)

ISS - Pass Details

Date: 12 September 2018
Orbit: 402 x 408 km, 51.6° (Epoch: 20 September)

Event Time Altitude Azimuth Distance (km) Brightness Sun altitude
Exits shadow 05:23:46 21° 306° (NW) 962 -2.2 -16.1°
Maximum altitude 05:25:38 48° 12° (NNE) 537 -3.0 -15.8°
Drops below altitude 10° 05:28:49 10° 89° (E) 1,458 0.1 -15.3°
Sets 05:30:56 0° 95° (E) 2,315 1.1 -15.0°
